STARLINK-11632, 63108

Orbit data source: Space-Track

STARLINK-11632, 63108 is a payload satellite owned by SpaceX/Seattle (US) in LEO that was launched on Thu, 27 Feb 2025 UTC via an FALCON 9 launch vehicle from the Air Force Eastern Test Range (AFETR). Payload-class satellites include a variety of spacecraft equipped with specific instruments for various scientific and technological missions. These include communications satellites like Starlink; space stations such as the ISS; scientific satellites like the Hubble; Earth observation satellites from companies like Planet Labs, Umbra, and HawkEye 360; GPS; miniature CubeSats for education and research; and military/defense satellites.

Loading next visibility...
Identifier
63108, 2025-039E
Orbit
LEO
Country
Flag of USUS
Related business
Manufacturer
SpaceX/Seattle
Mission
Operational Commercial Communications
Bus & Motor
STARLINK V2MD, Unknown motor
Mass
960 kg wet, ~910 kg dry
Launch date (UTC)
2025-02-27 (1 year ago)
Launch vehicle
FALCON 9
Launch site
Air Force Eastern Test Range (AFETR)
Object type
Payload
Rocket body
Debris
Shape & HBR
Box + 2 Pan, 18.1 m
Radar Cross Section
36.964 m², Large (>1 m²)

Expand to show TLE details & history
Last TLE update: 9 hours ago

TLE from 9 hours ago
0 STARLINK-11632
1 63108U 25039E   26150.90114540  .00222031  00000-0  16848-2 0  9994
2 63108  42.9993 101.4386 0001301 229.4203 130.6552 15.70884937 72548
Epoch: 2026-05-30T21:37Z
TLE epoch observation values (Epoch: 2026-05-30T21:37:38.962Z)
Latitude
0.00001°
Longitude
-111.38426°
Altitude
356.708 km
Speed
7.697 km/s
True Right ascension
06h 45m 45s
True Declination
0° 00' 00"
Sunlit
Object was in daylight at epoch
Visualization orbit readout
Latitude
Unknown
Longitude
Unknown
Altitude
Unknown
Speed
Unknown
Apparent Right ascension
Unknown
Apparent Declination
Unknown
Sunlit
N/A
Visualization observer readout
Local Sidereal Time
16:34:21
Azimuth
Unknown
Elevation
Unknown
Doppler factor
Unknown
Orbital elements
Apogee altitude
359.225 km
Perigee altitude
357.472 km
Semi-major axis
6,736.485 km
Eccentricity
0.00013
Inclination
42.9993°
RAAN
101.4386°
Arg. of periapsis
229.4203°
True anomaly
130.66651°
Mean anomaly
130.6552°
Eccentric anomaly
130.66085°
Mean motion
3.92548 °/min
Orbital period
91.71 mins
BSTAR
0.0016848
Loading maneuver chart data...
Computing Atmospheric mass density...
Loading historical data...
Loading historical data...
Loading historical data...
Loading historical data...
Loading historical data...
Loading historical data...
Loading historical data...

Documentation

Showing up to 5 results
|